Vorticity
5 5 6 5 5 5 5 6 7 9 8 9 8 7 7 8 8 8 7 4 15 8 9 3 5 4 4 5 0 3 10 -1 7 27 20 9 6 -2 9 4 4 14 9 20 -2
4 4 5 5 5 5 6 6 6 7 8 9 9 9 8 8 9 9 6 6 13 11 9 11 7 4 2 7 0 -2 -2 -1 -5 18 28 4 5 -5 2 12 5 13 30 16 3
7 5 5 5 5 5 5 6 7 7 8 8 8 8 11 10 9 10 10 7 8 10 8 7 6 5 4 0 -4 -1 7 0 0 4 20 15 6 14 2 7 5 16 28 4 3
7 8 10 9 6 5 5 5 6 8 7 9 9 7 11 12 7 14 12 7 4 13 12 5 7 7 3 0 6 3 0 1 0 1 4 7 7 7 11 16 -6 12 11 4 2
8 10 10 7 10 9 6 6 6 6 7 9 8 8 8 14 6 9 15 7 6 9 8 11 11 7 -2 -1 12 -10 -2 3 -1 -3 6 11 -2 15 1 0 16 13 11 5 0
17 13 8 12 11 8 11 7 6 6 6 9 8 9 7 13 14 5 14 11 6 6 11 11 14 2 7 4 6 9 5 -3 8 8 23 7 14 5 16 4 -2 24 13 7 4
11 17 18 12 11 14 9 10 9 8 8 8 10 11 7 10 16 3 3 19 8 8 13 12 15 -1 0 5 5 -6 6 10 15 20 12 9 4 3 12 23 18 20 16 17 -1
11 9 11 15 14 16 11 12 8 11 10 9 10 10 6 13 11 9 -2 11 14 7 9 10 13 6 21 -1 12 2 5 5 11 12 9 0 8 1 -11 30 7 6 21 9 14
11 11 8 10 13 16 13 12 10 10 12 11 11 9 9 13 13 13 7 8 12 11 9 7 13 0 14 -1 4 4 13 2 16 17 2 3 -1 13 3 33 9 3 11 11 14
11 12 10 8 10 15 14 14 12 11 13 14 12 7 11 16 13 8 12 8 13 9 6 6 10 -1 -2 6 15 7 0 -3 19 14 3 -1 1 -5 7 9 13 9 11 10 3
13 12 13 10 10 15 15 13 14 16 9 5 18 -5 18 6 1 26 20 9 10 12 6 4 2 4 -1 1 -7 7 1 3 -6 3 0 6 17 7 6 15 9 12 -1 13 12
13 11 12 12 14 14 12 10 8 8 18 18 6 15 8 3 1 7 8 3 6 9 7 8 2 5 3 1 4 0 -1 5 5 -3 7 2 9 24 10 7 9 13 12 4 0
10 9 11 15 18 16 11 9 8 11 6 21 13 9 3 4 5 14 13 3 13 13 10 8 29 -1 2 7 3 3 6 3 1 1 16 14 24 20 13 13 -1 8 17 4 11
10 8 8 12 22 18 11 6 6 8 14 25 20 5 3 5 2 2 12 -1 9 18 5 19 -20 20 8 2 14 6 15 5 -4 8 11 8 2 29 14 6 0 5 6 15 9
11 7 9 17 18 14 14 12 14 14 10 34 19 8 9 -6 26 12 8 -1 6 9 -5 1 6 -4 21 1 7 15 19 1 6 11 10 21 2 10 22 9 7 1 3 21 12
14 15 12 12 14 15 9 0 16 2 12 20 29 8 11 5 11 9 10 10 15 21 12 1 18 21 19 22 11 -4 -1 6 21 6 5 13 -2 24 1 15 10 21 0 0 22
14 21 13 9 12 21 27 21 2 13 21 31 14 12 7 3 18 2 9 0 -8 3 18 3 0 3 2 9 9 11 11 6 7 11 9 13 4 14 20 1 18 32 17 26 17
10 21 12 18 -3 15 9 9 11 4 28 26 14 4 12 -1 0 16 23 13 18 6 -4 2 20 13 17 13 2 7 11 -10 10 8 22 0 17 -7 19 -8 10 17 19 18 17
16 23 8 15 19 19 14 1 8 14 21 28 20 14 -1 1 2 22 15 4 17 21 -2 9 12 23 17 17 3 17 17 10 0 10 -2 11 14 -19 -3 12 3 43 10 13 28
18 5 6 -2 -2 12 -3 5 11 13 17 17 11 11 17 5 -1 -2 10 5 2 17 10 24 3 2 -1 14 29 11 5 10 15 4 6 11 -15 10 19 6 5 4 28 13 7
3 -1 11 1 1 11 8 -1 -5 4 29 26 21 21 10 1 14 0 29 14 7 12 13 5 10 12 9 16 29 18 9 12 -1 4 2 4 -1 12 7 6 6 5 4 35 18
13 4 8 4 1 12 14 12 -4 7 7 -3 5 4 15 13 7 -5 7 6 5 5 7 7 10 23 14 1 6 11 12 13 5 20 12 17 8 15 4 8 7 5 7 7 22
12 13 13 3 11 10 8 6 6 5 21 13 10 5 5 2 0 5 1 6 6 5 11 12 19 -7 3 -8 5 6 9 13 20 0 15 -8 11 1 3 6 7 6 15 9 22
15 16 29 27 12 2 -1 12 7 13 17 17 7 9 8 9 8 10 9 3 3 8 5 6 5 6 4 19 3 4 -2 4 9 1 7 9 15 3 11 6 2 8 5 12 11
13 6 6 15 18 9 9 5 12 13 12 14 12 8 8 11 18 11 8 5 3 6 3 7 15 15 22 7 6 6 7 6 2 2 6 4 5 8 2 3 9 12 4 4 8
14 16 11 14 14 8 13 15 13 11 11 6 3 11 14 12 5 3 6 8 -2 6 7 14 14 9 7 6 8 12 9 11 16 7 0 0 3 6 2 -2 3 3 13 8 8
9 10 12 12 10 9 13 14 9 10 6 7 10 8 6 8 11 7 5 6 2 3 5 10 9 4 16 2 18 20 27 22 13 18 14 3 4 6 4 0 -3 0 5 6 12
Height
3131 3129 3128 3127 3126 3125 3125 3125 3125 3125 3124 3125 3124 3125 3126 3127 3128 3130 3132 3134 3135 3138 3141 3143 3146 3150 3152 3154 3155 3157 3157 3156 3156 3155 3156 3158 3159 3156 3160 3165 3165 3167 3170 3175 3177
3127 3126 3125 3124 3123 3123 3122 3122 3122 3122 3122 3122 3122 3122 3123 3124 3126 3128 3130 3132 3134 3137 3140 3144 3146 3149 3152 3153 3156 3156 3157 3157 3158 3158 3158 3158 3158 3161 3164 3164 3166 3167 3168 3175 3179
3123 3122 3121 3120 3119 3119 3119 3119 3119 3118 3118 3119 3120 3120 3121 3122 3124 3125 3128 3130 3132 3136 3138 3141 3144 3149 3151 3153 3156 3157 3158 3158 3159 3159 3160 3161 3162 3163 3165 3166 3168 3170 3170 3175 3181
3119 3117 3116 3115 3115 3114 3114 3115 3115 3115 3115 3115 3117 3118 3119 3120 3124 3122 3125 3128 3130 3133 3136 3139 3142 3147 3150 3152 3155 3157 3159 3160 3160 3160 3160 3162 3164 3165 3166 3167 3170 3172 3176 3179 3182
3115 3113 3111 3110 3109 3109 3109 3110 3111 3111 3112 3112 3113 3114 3116 3118 3119 3120 3123 3126 3129 3132 3135 3139 3143 3147 3150 3152 3155 3157 3160 3160 3161 3160 3161 3162 3164 3162 3165 3167 3168 3174 3178 3181 3184
3111 3108 3106 3105 3105 3104 3104 3105 3106 3106 3108 3109 3110 3111 3113 3116 3117 3118 3121 3124 3128 3131 3134 3138 3142 3147 3150 3151 3154 3156 3157 3159 3160 3160 3160 3162 3164 3164 3166 3167 3168 3174 3177 3181 3185
3108 3105 3102 3101 3100 3099 3099 3100 3102 3102 3103 3105 3106 3108 3110 3112 3114 3116 3119 3122 3125 3130 3133 3137 3141 3144 3147 3151 3153 3155 3157 3158 3158 3158 3159 3162 3164 3163 3165 3167 3170 3170 3176 3180 3185
3105 3102 3099 3097 3096 3096 3094 3095 3097 3098 3100 3101 3102 3105 3107 3109 3111 3114 3117 3120 3122 3126 3130 3136 3138 3143 3147 3149 3152 3155 3156 3157 3157 3158 3160 3163 3163 3163 3164 3164 3166 3168 3175 3178 3183
3101 3098 3096 3094 3092 3091 3090 3093 3093 3094 3095 3098 3099 3100 3104 3106 3109 3112 3115 3118 3121 3125 3128 3132 3137 3141 3145 3148 3152 3154 3156 3157 3157 3158 3160 3163 3164 3164 3165 3164 3164 3168 3173 3177 3182
3098 3095 3092 3090 3089 3088 3087 3088 3089 3090 3091 3094 3097 3101 3101 3105 3107 3110 3112 3116 3120 3122 3126 3130 3134 3138 3142 3146 3149 3153 3155 3157 3158 3160 3160 3161 3163 3164 3165 3166 3166 3167 3172 3176 3180
3095 3092 3089 3087 3086 3085 3084 3085 3088 3089 3089 3091 3093 3096 3097 3101 3104 3106 3109 3112 3116 3121 3124 3128 3132 3132 3140 3146 3150 3152 3154 3157 3159 3160 3160 3160 3161 3163 3166 3166 3166 3168 3169 3176 3180
3092 3088 3086 3085 3084 3083 3081 3082 3083 3086 3087 3088 3091 3094 3096 3098 3103 3105 3108 3111 3113 3118 3122 3128 3129 3136 3142 3145 3148 3150 3152 3156 3159 3160 3159 3157 3158 3159 3163 3166 3167 3169 3170 3173 3178
3089 3086 3085 3083 3082 3081 3081 3082 3082 3084 3086 3086 3089 3093 3096 3101 3102 3103 3107 3110 3114 3117 3120 3125 3130 3135 3139 3143 3146 3148 3150 3154 3157 3158 3158 3156 3156 3156 3160 3163 3166 3168 3170 3172 3175
3088 3085 3084 3082 3082 3080 3081 3082 3083 3084 3084 3084 3087 3092 3096 3099 3103 3104 3107 3112 3114 3117 3122 3127 3131 3134 3137 3140 3144 3146 3149 3153 3154 3155 3156 3157 3158 3156 3158 3162 3164 3166 3167 3170 3172
3087 3085 3083 3080 3080 3080 3082 3082 3083 3084 3084 3084 3086 3091 3095 3100 3102 3104 3107 3111 3114 3116 3121 3126 3129 3132 3135 3137 3141 3145 3149 3151 3152 3153 3155 3156 3158 3155 3156 3159 3161 3164 3165 3167 3170
3086 3084 3082 3081 3080 3081 3080 3082 3083 3086 3082 3084 3085 3089 3095 3098 3100 3103 3108 3112 3114 3117 3120 3125 3128 3131 3134 3136 3140 3143 3146 3148 3150 3152 3154 3154 3156 3155 3156 3159 3162 3162 3163 3164 3167
3087 3084 3082 3081 3081 3080 3080 3081 3084 3083 3084 3084 3086 3089 3094 3098 3101 3103 3107 3109 3112 3116 3119 3123 3126 3128 3130 3133 3136 3140 3143 3146 3152 3153 3153 3152 3155 3156 3156 3156 3156 3155 3159 3162 3165
3088 3085 3083 3083 3082 3081 3080 3084 3083 3084 3082 3083 3086 3090 3094 3098 3101 3102 3104 3108 3111 3114 3117 3121 3126 3126 3128 3130 3133 3136 3139 3140 3147 3152 3149 3150 3152 3154 3154 3154 3152 3152 3154 3156 3161
3090 3088 3087 3086 3084 3083 3084 3084 3087 3084 3084 3084 3087 3091 3094 3097 3100 3102 3105 3108 3110 3112 3116 3119 3123 3124 3125 3127 3130 3132 3135 3139 3140 3144 3146 3148 3150 3151 3151 3152 3151 3149 3151 3154 3157
3093 3091 3090 3089 3087 3087 3087 3087 3089 3087 3086 3086 3087 3090 3094 3098 3100 3102 3105 3109 3110 3112 3113 3116 3121 3123 3124 3125 3128 3129 3134 3137 3138 3145 3147 3147 3149 3150 3148 3148 3148 3148 3149 3150 3154
3095 3094 3093 3092 3090 3090 3086 3090 3090 3089 3088 3088 3088 3090 3094 3097 3100 3102 3107 3110 3111 3112 3113 3116 3119 3125 3124 3126 3126 3129 3130 3133 3136 3139 3142 3149 3153 3150 3149 3148 3148 3147 3148 3149 3152
3095 3095 3094 3092 3093 3090 3091 3089 3090 3091 3090 3091 3093 3093 3094 3096 3098 3101 3105 3108 3111 3113 3115 3116 3119 3122 3126 3127 3128 3128 3129 3131 3132 3138 3138 3141 3150 3149 3149 3148 3147 3147 3147 3148 3149
3094 3093 3093 3092 3092 3091 3092 3093 3092 3092 3091 3092 3093 3094 3096 3097 3100 3101 3105 3108 3111 3113 3115 3117 3119 3124 3130 3131 3130 3129 3130 3131 3131 3133 3135 3138 3146 3145 3147 3147 3146 3146 3146 3146 3147
3094 3092 3092 3091 3092 3093 3092 3092 3093 3092 3092 3093 3094 3096 3097 3098 3100 3102 3105 3108 3110 3112 3114 3117 3118 3120 3122 3124 3127 3129 3130 3131 3131 3133 3135 3137 3140 3143 3143 3144 3144 3144 3144 3144 3144
3095 3094 3093 3092 3092 3092 3093 3093 3092 3093 3093 3094 3094 3096 3098 3099 3101 3103 3105 3108 3109 3111 3113 3115 3116 3118 3120 3122 3124 3126 3128 3130 3131 3132 3135 3137 3139 3140 3141 3142 3142 3142 3142 3143 3143
3097 3095 3094 3094 3093 3093 3093 3093 3093 3093 3094 3094 3095 3095 3097 3099 3101 3103 3105 3106 3108 3109 3111 3112 3115 3117 3119 3121 3123 3124 3126 3127 3129 3130 3131 3133 3136 3138 3139 3140 3141 3142 3142 3142 3141
3097 3097 3096 3096 3094 3095 3094 3094 3094 3094 3095 3095 3095 3096 3096 3098 3099 3102 3103 3104 3105 3107 3109 3112 3113 3116 3118 3120 3121 3123 3121 3123 3125 3126 3128 3129 3132 3135 3136 3138 3139 3140 3141 3141 3141